TimeMST,TemperatureF,Dew PointF,Humidity,Sea Level PressureIn,VisibilityMPH,Wind Direction,Wind SpeedMPH,Gust SpeedMPH,PrecipitationIn,Events,Conditions,WindDirDegrees,DateUTC
12:55 AM,35.1,28.0,76,29.70,10.0,WNW,18.4,-,N/A,,Clear,300,2014-01-11 07:55:00
1:55 AM,35.1,27.0,72,29.73,10.0,NW,21.9,29.9,N/A,,Clear,310,2014-01-11 08:55:00
2:55 AM,33.1,26.1,75,29.76,10.0,WNW,18.4,-,N/A,,Clear,300,2014-01-11 09:55:00
3:55 AM,33.1,27.0,78,29.79,10.0,NW,17.3,-,N/A,,Clear,310,2014-01-11 10:55:00
4:55 AM,32.0,26.1,79,29.81,10.0,WNW,16.1,-,N/A,,Clear,300,2014-01-11 11:55:00
5:55 AM,30.9,25.0,79,29.83,10.0,West,11.5,-,N/A,,Clear,280,2014-01-11 12:55:00
6:55 AM,28.9,25.0,85,29.85,10.0,West,11.5,-,N/A,,Clear,270,2014-01-11 13:55:00
7:55 AM,27.0,23.0,85,29.84,10.0,WSW,8.1,-,N/A,,Clear,250,2014-01-11 14:55:00
8:55 AM,34.0,26.1,73,29.85,10.0,WNW,8.1,-,N/A,,Clear,290,2014-01-11 15:55:00
9:55 AM,39.0,28.0,65,29.83,10.0,West,10.4,-,N/A,,Clear,260,2014-01-11 16:55:00
10:55 AM,43.0,27.0,53,29.79,10.0,West,8.1,-,N/A,,Clear,260,2014-01-11 17:55:00
11:55 AM,46.0,26.1,46,29.73,10.0,WSW,9.2,-,N/A,,Clear,250,2014-01-11 18:55:00
12:55 PM,46.9,28.9,50,29.67,10.0,SSW,6.9,-,N/A,,Clear,210,2014-01-11 19:55:00
1:55 PM,48.0,28.0,46,29.62,10.0,SSW,11.5,-,N/A,,Clear,210,2014-01-11 20:55:00
2:55 PM,46.9,28.0,48,29.60,10.0,South,8.1,-,N/A,,Clear,190,2014-01-11 21:55:00
3:55 PM,43.0,28.0,56,29.57,10.0,SSE,5.8,-,N/A,,Clear,160,2014-01-11 22:55:00
4:55 PM,41.0,28.0,60,29.53,10.0,Variable,5.8,-,N/A,,Clear,0,2014-01-11 23:55:00
5:55 PM,42.1,28.0,58,29.48,10.0,SSW,6.9,21.9,N/A,,Clear,210,2014-01-12 00:55:00
6:55 PM,41.0,28.9,62,29.46,10.0,SSW,9.2,-,N/A,,Clear,210,2014-01-12 01:55:00
7:55 PM,42.1,30.0,62,29.42,10.0,South,4.6,-,N/A,,Clear,180,2014-01-12 02:55:00
8:55 PM,46.0,32.0,58,29.37,10.0,WSW,10.4,-,N/A,,Clear,240,2014-01-12 03:55:00
9:55 PM,46.9,32.0,56,29.33,10.0,WSW,15.0,-,N/A,,Clear,240,2014-01-12 04:55:00
10:55 PM,45.0,32.0,60,29.33,10.0,WSW,15.0,-,N/A,,Clear,250,2014-01-12 05:55:00
11:55 PM,43.0,32.0,65,29.33,10.0,WNW,5.8,-,N/A,,Overcast,290,2014-01-12 06:55:00